Location: Newark
(40.7060°N, 73.9980°W)
Time: 14:41:03
(UTC+00:00)

X-37B - Pass Details

Date: 13 March 2021
Orbit: 380 x 394 km, 45.0° (Epoch: 07 April)

Event Time Altitude Azimuth Distance (km) Brightness Sun altitude
Rises 00:26:43 0° 247° (WSW) 2,263 5.4 -17.2°
Reaches altitude 10° 00:28:46 10° 247° (WSW) 1,414 4.2 -17.6°
Maximum altitude 00:31:57 90° 251° (WSW) 394 0.5 -18.2°
Enters shadow 00:32:20 67° 67° (ENE) 425 0.5 -18.2°
